Wind_Speed
13 12 13 17 17 20 19 21 25 26 26 26 22 25 27 24 31 30 29 29 36 45 40 35 45 35 42 39 33 29 32 28 24 25 29 33 36 34 32 30 29 28 31 35
13 15 15 15 17 19 20 23 25 24 24 21 24 28 29 21 21 25 29 33 34 32 32 40 37 33 38 29 26 26 29 31 29 31 35 34 28 26 26 27 27 28 31 34
15 17 20 19 19 22 20 19 22 23 20 20 24 26 26 27 27 27 30 31 34 34 36 36 29 31 21 22 25 26 30 31 29 30 33 32 30 31 22 26 25 26 31 34
15 19 20 20 22 19 21 20 23 22 19 17 18 18 21 22 24 21 29 35 27 27 32 38 32 31 29 27 23 22 25 28 31 30 34 33 32 33 32 23 25 27 31 34
18 19 19 21 23 22 25 23 21 22 22 21 22 15 21 21 24 23 20 31 30 28 31 40 40 34 28 31 34 36 36 36 36 36 31 36 31 27 20 24 25 26 26 26
20 21 15 17 21 22 22 23 25 22 18 17 24 20 22 19 22 24 22 27 34 37 41 35 36 42 47 40 35 33 36 39 39 38 34 32 29 29 24 25 29 31 28 28
17 17 8 13 17 20 14 15 13 15 15 17 22 21 18 23 23 27 23 27 30 31 28 30 36 40 42 41 42 41 36 37 37 36 32 30 31 27 25 29 31 29 27 27
12 15 7 4 21 20 10 6 7 12 16 18 20 15 17 20 23 29 32 36 30 22 24 32 22 26 31 29 32 34 30 27 30 33 33 32 29 27 26 32 29 24 23 22
14 15 19 20 17 17 20 13 12 12 17 16 18 24 20 22 22 21 26 33 25 24 24 17 15 20 23 23 24 28 27 26 29 28 27 29 26 27 28 22 19 15 17 19
14 21 19 23 11 17 24 18 10 1 5 17 17 21 14 16 16 21 22 20 32 22 15 17 16 17 17 18 18 25 25 24 23 23 24 24 26 26 22 20 22 18 21 20
18 14 17 20 19 16 11 10 6 7 6 10 14 12 8 21 24 27 26 26 7 10 15 19 15 16 17 18 19 24 21 20 22 22 22 24 26 25 24 26 23 25 21 19
10 7 16 22 25 21 19 16 11 9 14 13 12 18 16 21 26 30 39 10 20 9 2 12 12 6 10 14 15 17 20 21 23 25 25 27 28 28 28 24 25 24 23 20
8 4 10 14 18 8 7 14 17 15 9 15 12 14 15 21 23 39 35 27 29 16 12 10 15 17 18 23 21 25 24 24 24 27 28 28 26 26 26 25 21 21 18 17
6 6 14 15 21 3 6 19 25 18 10 14 14 19 8 8 11 24 34 35 24 18 10 7 13 18 19 28 28 25 27 29 27 26 27 27 27 26 25 22 21 20 18 16
6 8 15 20 23 22 21 26 30 23 18 18 16 18 12 8 7 20 31 44 21 15 4 6 11 11 22 31 30 30 28 29 28 28 27 26 25 24 22 20 19 15 16 14
3 5 14 18 19 21 24 25 27 25 20 22 18 17 13 9 16 28 39 24 14 13 12 2 11 12 23 32 30 31 30 29 30 28 25 23 22 21 20 18 16 16 16 16
3 5 9 15 15 15 14 16 17 24 17 20 18 12 14 9 14 18 13 18 13 12 17 4 10 15 17 27 31 30 30 28 27 25 23 21 19 17 17 17 18 18 16 15
5 9 7 10 13 11 8 17 13 17 17 22 21 16 19 20 26 17 15 16 15 16 13 2 12 19 19 20 29 29 27 24 23 22 22 22 19 18 17 19 16 17 15 15
8 2 4 4 7 13 16 8 9 12 22 16 15 18 17 25 25 21 12 15 16 15 10 12 13 26 16 25 29 28 25 24 22 22 23 19 16 20 18 19 17 16 16 12
5 6 3 3 4 4 6 13 23 13 12 13 13 14 18 25 9 7 22 28 3 8 13 8 17 31 27 24 27 26 25 23 22 22 21 17 12 17 20 17 16 14 11 11
2 2 5 9 5 6 4 6 7 5 7 24 27 23 24 15 17 27 21 22 22 14 17 12 27 34 29 29 29 26 24 22 25 22 16 16 23 16 21 18 15 14 13 11
3 2 2 3 4 3 5 6 3 9 29 29 33 29 26 26 27 21 23 26 28 18 10 7 32 33 31 27 28 24 23 25 20 18 17 18 12 20 17 14 15 15 12 14
3 5 2 4 4 14 21 18 16 22 21 32 33 33 22 21 24 23 24 28 28 18 14 19 32 32 26 30 26 28 28 25 21 20 19 18 15 23 16 13 13 14 14 13
7 5 3 3 1 12 20 14 20 15 23 30 25 16 9 15 19 21 26 27 20 15 13 27 28 31 32 29 26 27 23 21 21 20 19 19 17 12 12 11 12 10 10 13
11 8 7 4 8 11 3 19 12 19 22 23 19 15 15 17 20 21 25 20 12 13 13 32 30 30 31 27 29 24 25 23 22 21 19 18 15 14 13 10 9 8 9 10
5 5 3 3 8 6 18 22 11 17 21 21 16 18 16 16 19 22 22 17 11 11 22 21 31 32 28 27 29 29 24 25 22 21 19 17 14 12 8 9 11 10 9 8
Wind_Direction
314 299 277 282 271 272 290 284 278 281 292 299 290 266 261 239 239 239 241 240 237 252 255 254 244 245 240 233 221 230 241 239 236 231 233 246 252 253 256 257 258 230 237 241
291 270 272 285 275 275 274 276 278 285 290 291 285 281 280 271 256 244 233 229 240 257 252 253 250 236 232 225 220 225 236 244 248 247 252 248 252 255 256 250 251 229 233 237
297 298 304 293 288 284 276 271 276 282 290 283 283 280 274 272 277 281 281 266 229 232 255 260 259 244 227 219 225 240 249 251 255 258 252 252 250 233 229 228 239 232 228 233
295 296 287 282 273 278 278 279 281 282 282 277 277 275 262 269 264 253 257 269 251 237 243 260 264 257 252 244 234 239 245 249 251 256 249 240 241 237 224 221 230 234 228 229
289 293 289 288 284 291 284 289 281 279 277 281 269 261 268 269 271 258 255 247 255 252 247 242 253 255 254 254 257 259 255 248 250 254 247 236 228 231 220 217 220 231 233 220
270 281 287 308 306 301 304 294 290 272 270 260 262 258 266 264 261 265 267 258 235 236 243 242 237 248 256 259 255 252 245 241 241 239 240 234 222 220 211 208 219 228 228 212
315 315 11 341 319 289 266 273 267 253 248 256 254 251 257 268 266 262 267 266 276 274 240 235 234 233 239 238 244 244 241 236 229 229 237 228 210 224 211 212 220 222 226 209
321 311 0 225 272 291 263 234 260 269 273 278 295 289 292 306 299 282 274 275 262 284 266 241 231 235 228 231 234 235 228 222 216 225 230 234 225 216 213 212 218 234 210 200
312 294 291 296 299 293 285 261 180 283 282 279 276 285 268 266 271 264 267 253 256 258 256 253 229 243 239 237 232 220 217 216 226 230 219 213 211 195 206 212 222 189 183 183
313 304 300 300 293 307 281 295 289 200 277 275 258 252 277 262 272 246 259 252 241 237 225 234 237 238 236 234 231 205 211 202 199 202 200 194 189 186 198 187 174 174 176 177
304 301 307 311 280 268 274 238 290 343 272 278 264 268 274 8 355 329 313 270 179 253 231 237 239 226 223 200 179 175 183 185 185 184 182 182 179 179 179 172 174 171 171 174
3 297 288 290 292 286 286 300 189 267 284 257 276 273 23 12 348 337 327 85 295 253 225 249 251 244 177 180 166 165 170 180 179 173 173 170 164 168 165 160 165 169 170 166
360 285 301 294 279 59 20 321 310 294 306 283 278 281 355 24 343 328 324 319 282 331 172 216 218 216 205 171 166 166 168 169 168 171 167 162 164 160 167 167 166 162 161 160
250 249 254 269 282 112 273 285 285 278 272 272 275 296 335 39 320 314 305 307 289 311 56 172 190 202 213 156 154 154 157 159 157 155 154 154 153 156 158 158 153 159 162 167
180 262 274 264 270 275 246 241 259 243 254 250 292 285 294 180 212 279 271 267 282 327 60 187 194 185 146 143 149 148 146 147 147 143 148 150 153 153 154 155 160 158 161 161
190 269 283 282 277 270 270 266 270 273 274 275 276 277 269 234 197 246 251 273 311 326 343 121 201 158 135 150 149 148 144 149 145 144 149 151 152 156 159 160 163 162 167 165
241 286 298 284 297 340 288 280 313 305 278 273 267 320 328 274 250 255 318 317 313 307 300 137 203 181 154 137 148 147 143 143 143 146 148 154 158 160 164 163 160 167 165 172
222 297 270 288 300 274 321 332 331 347 319 349 345 341 317 317 317 286 296 280 281 293 289 206 191 179 153 155 146 139 140 143 148 151 153 150 154 159 163 157 169 166 169 163
216 292 279 271 272 283 302 7 344 357 314 327 343 335 307 298 298 297 328 277 273 277 325 325 192 178 160 150 145 142 147 153 153 155 158 163 163 164 163 161 173 172 173 172
182 216 258 295 280 283 33 23 356 341 293 20 341 327 319 319 276 303 347 347 348 331 309 292 199 177 159 159 149 150 157 156 159 148 140 148 162 161 165 169 172 177 174 163
281 199 241 260 274 255 68 343 333 291 336 334 322 309 303 303 317 314 313 309 310 321 299 223 184 178 165 156 154 159 159 159 137 132 135 151 155 156 168 172 174 166 161 162
226 278 270 281 272 328 311 346 220 327 306 308 303 298 290 288 297 296 295 296 312 312 282 222 178 171 161 156 156 159 149 137 137 140 149 151 144 151 160 174 175 172 168 176
284 209 229 205 242 312 307 296 262 283 297 297 293 289 256 267 278 287 290 297 303 301 296 189 168 167 159 154 163 139 136 139 143 142 145 143 149 155 160 166 174 184 185 187
318 111 223 274 84 302 312 321 309 318 306 309 314 318 268 275 280 290 299 303 312 304 302 181 172 165 152 157 148 147 146 141 143 141 142 147 155 154 161 172 192 200 201 192
297 182 247 231 281 315 340 318 305 325 323 320 322 316 308 306 302 298 305 313 310 290 249 179 169 157 148 155 145 153 140 141 147 139 145 151 154 158 167 172 167 172 167 168
332 300 334 276 35 359 323 309 329 337 321 325 327 320 319 312 310 307 298 319 307 240 211 189 166 145 148 158 151 149 149 146 141 142 160 150 153 134 143 154 145 132 134 127
Height
1455 1454 1450 1441 1437 1433 1432 1431 1426 1418 1413 1416 1412 1403 1394 1398 1403 1405 1408 1412 1414 1415 1417 1417 1420 1423 1425 1426 1428 1432 1437 1441 1446 1450 1451 1450 1448 1449 1450 1450 1451 1455 1454 1454
1455 1450 1441 1437 1436 1436 1437 1437 1432 1425 1423 1423 1414 1407 1395 1391 1390 1393 1397 1401 1405 1407 1408 1410 1413 1414 1417 1417 1420 1425 1428 1433 1437 1443 1443 1443 1444 1443 1443 1443 1445 1448 1449 1449
1455 1449 1444 1441 1440 1439 1434 1436 1433 1431 1426 1424 1418 1413 1401 1390 1390 1390 1391 1392 1393 1398 1402 1404 1405 1407 1409 1412 1415 1418 1422 1425 1427 1433 1434 1436 1438 1438 1438 1438 1439 1441 1444 1445
1454 1449 1445 1441 1438 1437 1436 1428 1425 1424 1427 1432 1417 1418 1403 1392 1388 1388 1389 1387 1387 1390 1395 1397 1399 1400 1402 1404 1409 1412 1415 1418 1420 1425 1426 1427 1429 1429 1432 1433 1434 1435 1438 1441
1453 1446 1442 1440 1436 1430 1428 1424 1423 1422 1422 1421 1420 1420 1393 1396 1387 1384 1380 1381 1381 1384 1388 1390 1391 1393 1395 1398 1400 1405 1408 1410 1413 1415 1418 1419 1423 1424 1427 1429 1429 1430 1434 1437
1442 1442 1440 1440 1438 1437 1433 1430 1423 1418 1417 1420 1413 1413 1397 1392 1386 1380 1375 1372 1373 1375 1378 1380 1383 1386 1388 1391 1394 1397 1399 1401 1404 1407 1410 1412 1417 1420 1421 1422 1422 1425 1429 1432
1440 1439 1440 1448 1444 1432 1429 1430 1435 1427 1420 1410 1398 1401 1390 1380 1379 1376 1371 1368 1366 1366 1367 1370 1373 1376 1379 1382 1385 1389 1390 1391 1395 1398 1402 1406 1411 1414 1417 1415 1416 1421 1425 1429
1450 1449 1443 1446 1445 1436 1428 1456 1452 1434 1422 1404 1389 1399 1388 1376 1376 1372 1369 1367 1364 1362 1360 1362 1364 1367 1371 1373 1376 1380 1382 1385 1388 1392 1395 1400 1405 1409 1410 1410 1414 1419 1422 1427
1449 1444 1436 1433 1430 1430 1423 1422 1432 1432 1417 1422 1399 1387 1376 1373 1371 1369 1365 1363 1358 1358 1357 1356 1358 1362 1365 1366 1367 1372 1376 1379 1384 1386 1390 1394 1399 1406 1405 1409 1414 1417 1421 1426
1444 1442 1435 1429 1427 1433 1424 1414 1420 1427 1439 1420 1401 1392 1383 1370 1365 1365 1361 1356 1353 1350 1349 1352 1354 1356 1358 1361 1363 1367 1371 1375 1380 1383 1387 1391 1396 1402 1404 1408 1412 1417 1421 1426
1444 1443 1436 1436 1422 1415 1414 1412 1418 1430 1430 1422 1407 1388 1371 1385 1393 1390 1369 1354 1346 1349 1348 1350 1352 1352 1354 1356 1358 1362 1367 1373 1377 1381 1386 1390 1395 1400 1403 1408 1413 1417 1422 1426
1448 1449 1441 1430 1414 1407 1405 1406 1417 1414 1419 1409 1399 1385 1384 1400 1402 1401 1387 1358 1355 1347 1346 1347 1348 1350 1350 1354 1357 1362 1367 1371 1376 1380 1385 1389 1394 1399 1403 1407 1413 1418 1422 1427
1462 1450 1448 1429 1409 1417 1423 1425 1415 1409 1417 1411 1407 1388 1390 1403 1410 1400 1392 1375 1362 1345 1342 1345 1347 1349 1350 1351 1356 1362 1365 1371 1375 1380 1385 1390 1395 1400 1405 1409 1414 1418 1423 1428
1464 1457 1451 1440 1425 1435 1443 1433 1411 1409 1412 1402 1394 1392 1392 1415 1416 1409 1398 1384 1359 1341 1326 1340 1345 1345 1344 1346 1354 1360 1365 1371 1376 1381 1387 1392 1397 1402 1407 1411 1416 1420 1424 1427
1460 1448 1438 1428 1420 1417 1417 1418 1395 1396 1388 1392 1379 1383 1377 1396 1402 1397 1383 1376 1361 1347 1343 1343 1346 1344 1341 1344 1354 1362 1367 1373 1378 1384 1390 1395 1399 1404 1408 1413 1417 1420 1424 1427
1450 1441 1433 1422 1413 1407 1402 1391 1383 1377 1380 1372 1369 1371 1364 1366 1378 1379 1375 1365 1357 1346 1344 1346 1349 1346 1341 1351 1356 1363 1369 1376 1380 1386 1392 1397 1401 1406 1409 1413 1417 1421 1424 1426
1450 1441 1432 1417 1409 1415 1403 1380 1379 1374 1373 1369 1367 1365 1362 1365 1366 1364 1359 1356 1351 1349 1348 1348 1350 1350 1349 1351 1359 1365 1371 1377 1383 1388 1393 1398 1402 1406 1409 1413 1417 1420 1424 1426
1443 1438 1433 1418 1414 1415 1388 1381 1390 1391 1384 1381 1374 1373 1371 1363 1355 1350 1351 1352 1353 1351 1350 1349 1351 1354 1355 1357 1362 1366 1374 1380 1385 1390 1394 1398 1402 1406 1409 1414 1417 1420 1423 1426
1439 1442 1434 1425 1414 1404 1394 1394 1394 1397 1390 1387 1383 1376 1370 1366 1360 1351 1351 1351 1351 1351 1350 1351 1351 1355 1357 1361 1364 1370 1377 1382 1386 1390 1393 1397 1402 1406 1410 1414 1417 1421 1423 1426
1434 1439 1440 1427 1422 1411 1407 1408 1401 1399 1388 1390 1391 1386 1381 1370 1361 1350 1352 1351 1350 1350 1350 1350 1352 1355 1358 1363 1366 1372 1378 1383 1387 1390 1393 1398 1402 1407 1411 1414 1418 1421 1424 1426
1431 1436 1435 1427 1420 1408 1414 1413 1412 1403 1387 1389 1391 1391 1386 1376 1372 1363 1358 1354 1352 1350 1348 1347 1351 1353 1359 1363 1368 1373 1378 1383 1385 1391 1396 1400 1403 1407 1411 1415 1418 1422 1425 1427
1432 1431 1426 1423 1417 1405 1413 1412 1411 1401 1391 1394 1384 1382 1378 1372 1367 1362 1358 1354 1352 1348 1345 1341 1342 1352 1358 1363 1368 1373 1377 1381 1387 1392 1398 1401 1404 1408 1412 1415 1419 1422 1424 1426
1423 1426 1424 1426 1416 1411 1411 1407 1406 1401 1397 1388 1381 1370 1372 1371 1367 1362 1358 1354 1351 1347 1345 1341 1343 1353 1357 1363 1369 1372 1378 1384 1389 1394 1398 1402 1407 1409 1412 1416 1419 1420 1423 1425
1415 1422 1424 1420 1410 1410 1407 1405 1400 1396 1391 1384 1376 1370 1368 1365 1361 1359 1355 1352 1346 1343 1340 1337 1348 1352 1357 1364 1369 1373 1380 1386 1391 1396 1400 1403 1408 1410 1414 1417 1418 1420 1422 1423
1413 1418 1410 1410 1406 1405 1404 1402 1396 1391 1384 1378 1373 1369 1364 1361 1360 1361 1356 1347 1342 1341 1341 1342 1348 1353 1359 1366 1370 1376 1381 1387 1392 1397 1400 1405 1408 1411 1414 1416 1417 1418 1419 1423
1409 1412 1408 1410 1407 1407 1402 1396 1391 1388 1382 1376 1371 1364 1363 1364 1363 1359 1350 1342 1339 1337 1330 1338 1347 1353 1363 1370 1373 1379 1384 1389 1394 1398 1402 1405 1408 1412 1414 1416 1418 1419 1421 1424